This is the latest recevied weather packets stored in our database for station/object K7PMV-13. If no packets are shown the sender has not sent any weather packets the latest 10 day(s).
| Time | Temp. | Humidity | Pressure | Rain* | Wind** | Luminosity | Snow |
|---|---|---|---|---|---|---|---|
| 1777712341 | 21.11° C | 34% | 1007 hPa | 0 mm | - | 0 W/m² | - |
| 1777712039 | 21.11° C | 34% | 1007.1 hPa | 0 mm | - | 0 W/m² | - |
| 1777711736 | 21.67° C | 33% | 1007.1 hPa | 0 mm | - | 0 W/m² | - |
| 1777711433 | 21.67° C | 33% | 1007.1 hPa | 0 mm | - | 0 W/m² | - |
| 1777711130 | 21.67° C | 33% | 1007.2 hPa | 0 mm | - | 0 W/m² | - |
| 1777710828 | 21.67° C | 33% | 1007.2 hPa | 0 mm | - | 0 W/m² | - |
| 1777710519 | 21.67° C | 34% | 1007.2 hPa | 0 mm | - | 0 W/m² | - |
| 1777710216 | 21.11° C | 34% | 1007.2 hPa | 0 mm | - | 0 W/m² | - |
| 1777709911 | 21.11° C | 35% | 1007.3 hPa | 0 mm | - | 0 W/m² | - |
| 1777709609 | 21.11° C | 35% | 1007.3 hPa | 0 mm | - | 0 W/m² | - |
| 1777709306 | 21.11° C | 36% | 1007.2 hPa | 0 mm | - | 0 W/m² | - |
| 1777709003 | 20.56° C | 35% | 1007.3 hPa | 0 mm | - | 0 W/m² | - |
| 1777708700 | 20° C | 34% | 1007.3 hPa | 0 mm | - | 0 W/m² | - |
| 1777708398 | 20° C | 35% | 1007 hPa | 0 mm | - | 0 W/m² | - |
| 1777707735 | 20° C | 33% | 1006.8 hPa | 0 mm | - | 0 W/m² | - |
| 1777707425 | 19.44° C | 34% | 1006.7 hPa | 0 mm | - | 0 W/m² | - |
| 1777707121 | 19.44° C | 35% | 1006.7 hPa | 0 mm | - | 0 W/m² | - |
| 1777706818 | 19.44° C | 35% | 1006.7 hPa | 0 mm | - | 0 W/m² | - |
| 1777706516 | 20° C | 34% | 1006.7 hPa | 0 mm | - | 0 W/m² | - |
| 1777706206 | 20° C | 34% | 1006.8 hPa | 0 mm | - | 0 W/m² | - |
| 1777705904 | 20° C | 34% | 1006.8 hPa | 0 mm | - | 0 W/m² | - |
| 1777705601 | 20° C | 34% | 1006.8 hPa | 0 mm | - | 0 W/m² | - |
| 1777705299 | 20.56° C | 34% | 1006.8 hPa | 0 mm | - | 0 W/m² | - |
| 1777704996 | 20.56° C | 34% | 1006.8 hPa | 0 mm | - | 0 W/m² | - |
| 1777704693 | 20.56° C | 35% | 1006.8 hPa | 0 mm | - | 0 W/m² | - |
* Rain latest hour (hover to see other rain measurements)
** Current wind speed in m/s (hover to see current wind gust speed)